• In Moldova, Republic
  • List of Countries
  • For 7 days
  • Water Temperature
  • Satellite Maps
  • Weather Map
  • Weather Widgets
  • user-avatar
    Login

    Hourly Weather Shusha

    Today, 24 September, Sunday

    Time Temperature Precipitation Wind Pressure Humidity
    00:00 +16°C° 0 mm 2 mps 661 mmHg 76%
    01:00 +16°C° 0 mm 1 mps 661 mmHg 76%
    02:00 +16°C° 0 mm 1 mps 662 mmHg 77%
    03:00 +16°C° 0 mm 1 mps 661 mmHg 79%
    04:00 +15°C° 0 mm 1 mps 661 mmHg 80%
    05:00 +15°C° 0 mm 1 mps 662 mmHg 81%
    06:00 +15°C° 0 mm 1 mps 662 mmHg 82%
    07:00 +16°C° 0 mm 2 mps 662 mmHg 74%
    08:00 +18°C° 0 mm 2 mps 663 mmHg 67%
    09:00 +20°C° 0 mm 2 mps 664 mmHg 60%
    10:00 +20°C° 0 mm 3 mps 664 mmHg 57%
    11:00 +21°C° 0 mm 3 mps 664 mmHg 55%
    12:00 +22°C° 0 mm 3 mps 664 mmHg 52%
    13:00 +22°C° 0.1 mm 3 mps 664 mmHg 52%
    14:00 +22°C° 0.1 mm 3 mps 664 mmHg 52%
    15:00 +22°C° 0.1 mm 3 mps 663 mmHg 53%
    16:00 +21°C° 0.1 mm 3 mps 663 mmHg 58%
    17:00 +20°C° 0.1 mm 3 mps 663 mmHg 63%
    18:00 +18°C° 0.1 mm 3 mps 663 mmHg 68%
    19:00 +18°C° 0.1 mm 2 mps 663 mmHg 72%
    20:00 +17°C° 0.1 mm 2 mps 663 mmHg 75%
    21:00 +16°C° 0.1 mm 1 mps 663 mmHg 79%
    22:00 +16°C° 0 mm 1 mps 663 mmHg 80%
    23:00 +15°C° 0 mm 1 mps 663 mmHg 82%

    Tomorrow, 25 September, Monday

    Time Temperature Precipitation Wind Pressure Humidity
    00:00 +15°C° 0 mm 1 mps 663 mmHg 83%
    01:00 +15°C° 0 mm 1 mps 663 mmHg 84%
    02:00 +14°C° 0 mm 1 mps 663 mmHg 85%
    03:00 +14°C° 0 mm 1 mps 663 mmHg 86%
    04:00 +14°C° 0 mm 1 mps 663 mmHg 85%
    05:00 +14°C° 0 mm 1 mps 663 mmHg 85%
    06:00 +13°C° 0 mm 1 mps 663 mmHg 84%
    07:00 +15°C° 0 mm 1 mps 663 mmHg 75%
    08:00 +18°C° 0 mm 1 mps 664 mmHg 65%
    09:00 +19°C° 0 mm 2 mps 664 mmHg 55%
    10:00 +20°C° 0 mm 2 mps 664 mmHg 52%
    11:00 +21°C° 0 mm 2 mps 664 mmHg 48%
    12:00 +22°C° 0 mm 3 mps 665 mmHg 45%
    13:00 +22°C° 0.1 mm 3 mps 664 mmHg 46%
    14:00 +22°C° 0.1 mm 3 mps 664 mmHg 47%
    15:00 +22°C° 0.1 mm 3 mps 664 mmHg 48%
    16:00 +21°C° 0.2 mm 3 mps 663 mmHg 53%
    17:00 +20°C° 0.2 mm 3 mps 663 mmHg 58%
    18:00 +19°C° 0.2 mm 3 mps 663 mmHg 63%
    19:00 +18°C° 0.1 mm 3 mps 663 mmHg 65%
    20:00 +17°C° 0.1 mm 3 mps 663 mmHg 67%
    21:00 +17°C° 0.1 mm 3 mps 663 mmHg 68%
    22:00 +16°C° 0 mm 2 mps 663 mmHg 70%
    23:00 +15°C° 0 mm 2 mps 663 mmHg 71%

    Day after tomorrow, 26 September, Tuesday

    Time Temperature Precipitation Wind Pressure Humidity
    00:00 +15°C° 0 mm 2 mps 663 mmHg 72%
    01:00 +14°C° 0 mm 2 mps 662 mmHg 72%
    02:00 +14°C° 0 mm 1 mps 662 mmHg 73%
    03:00 +13°C° 0 mm 1 mps 662 mmHg 73%
    04:00 +13°C° 0 mm 1 mps 662 mmHg 74%
    05:00 +13°C° 0 mm 1 mps 662 mmHg 75%
    06:00 +12°C° 0 mm 1 mps 661 mmHg 76%
    07:00 +14°C° 0 mm 2 mps 662 mmHg 70%
    08:00 +16°C° 0 mm 2 mps 662 mmHg 64%
    09:00 +17°C° 0 mm 3 mps 663 mmHg 57%
    10:00 +18°C° 0 mm 3 mps 663 mmHg 55%
    11:00 +19°C° 0 mm 3 mps 663 mmHg 52%
    12:00 +20°C° 0 mm 3 mps 663 mmHg 49%
    13:00 +20°C° 0 mm 4 mps 662 mmHg 50%
    14:00 +20°C° 0 mm 4 mps 662 mmHg 51%
    15:00 +20°C° 0 mm 4 mps 661 mmHg 52%
    16:00 +19°C° 0 mm 4 mps 661 mmHg 59%
    17:00 +18°C° 0 mm 4 mps 661 mmHg 66%
    18:00 +16°C° 0 mm 3 mps 661 mmHg 73%
    19:00 +16°C° 0 mm 3 mps 661 mmHg 76%
    20:00 +14°C° 0 mm 3 mps 661 mmHg 79%
    21:00 +14°C° 0 mm 3 mps 661 mmHg 81%
    22:00 +13°C° 0 mm 3 mps 661 mmHg 82%
    23:00 +13°C° 0 mm 3 mps 661 mmHg 83%

    27 September, Wednesday

    Time Temperature Precipitation Wind Pressure Humidity
    00:00 +13°C° 0 mm 3 mps 661 mmHg 83%
    01:00 +13°C° 0.1 mm 3 mps 661 mmHg 83%
    02:00 +13°C° 0.1 mm 2 mps 661 mmHg 82%
    03:00 +13°C° 0.1 mm 2 mps 660 mmHg 82%
    04:00 +13°C° 0 mm 2 mps 660 mmHg 83%
    05:00 +13°C° 0 mm 2 mps 660 mmHg 83%
    06:00 +13°C° 0 mm 2 mps 660 mmHg 84%
    07:00 +14°C° 0 mm 2 mps 661 mmHg 78%
    08:00 +15°C° 0 mm 2 mps 661 mmHg 73%
    09:00 +16°C° 0 mm 3 mps 661 mmHg 68%
    10:00 +16°C° 0 mm 3 mps 661 mmHg 66%
    11:00 +17°C° 0 mm 4 mps 661 mmHg 64%
    12:00 +17°C° 0 mm 4 mps 661 mmHg 62%
    13:00 +17°C° 0.1 mm 4 mps 661 mmHg 66%
    14:00 +15°C° 0.1 mm 4 mps 660 mmHg 69%
    15:00 +14°C° 0.1 mm 3 mps 659 mmHg 73%
    16:00 +14°C° 0.1 mm 3 mps 660 mmHg 76%
    17:00 +13°C° 0.1 mm 3 mps 660 mmHg 80%
    18:00 +12°C° 0.1 mm 3 mps 660 mmHg 83%
    19:00 +12°C° 0.1 mm 3 mps 660 mmHg 85%
    20:00 +13°C° 0.1 mm 2 mps 660 mmHg 86%
    21:00 +13°C° 0.1 mm 2 mps 661 mmHg 88%
    22:00 +12°C° 0.2 mm 2 mps 661 mmHg 89%
    23:00 +12°C° 0.2 mm 2 mps 661 mmHg 90%

    28 September, Thursday

    Time Temperature Precipitation Wind Pressure Humidity
    00:00 +12°C° 0.2 mm 2 mps 661 mmHg 91%
    01:00 +12°C° 0.1 mm 2 mps 661 mmHg 91%
    02:00 +12°C° 0.1 mm 2 mps 661 mmHg 92%
    03:00 +10°C° 0.1 mm 2 mps 661 mmHg 92%
    04:00 +10°C° 0.1 mm 2 mps 661 mmHg 92%
    05:00 +10°C° 0.1 mm 2 mps 661 mmHg 92%
    06:00 +10°C° 0.1 mm 3 mps 661 mmHg 91%
    07:00 +10°C° 0.1 mm 3 mps 661 mmHg 88%
    08:00 +11°C° 0.1 mm 3 mps 662 mmHg 85%
    09:00 +11°C° 0.1 mm 3 mps 662 mmHg 82%
    10:00 +11°C° 0.1 mm 3 mps 662 mmHg 80%
    11:00 +12°C° 0.1 mm 3 mps 662 mmHg 79%
    12:00 +12°C° 0.1 mm 4 mps 662 mmHg 78%
    13:00 +12°C° 0.1 mm 3 mps 662 mmHg 78%
    14:00 +12°C° 0.1 mm 3 mps 662 mmHg 79%
    15:00 +12°C° 0.1 mm 3 mps 662 mmHg 79%
    16:00 +11°C° 0.1 mm 3 mps 662 mmHg 82%
    17:00 +10°C° 0.1 mm 3 mps 662 mmHg 85%
    18:00 +10°C° 0.1 mm 2 mps 662 mmHg 88%
    19:00 +10°C° 0.1 mm 2 mps 663 mmHg 88%
    20:00 +10°C° 0.1 mm 2 mps 663 mmHg 89%
    21:00 +10°C° 0.1 mm 2 mps 663 mmHg 89%
    22:00 +10°C° 0.1 mm 2 mps 663 mmHg 89%
    23:00 +10°C° 0.1 mm 2 mps 663 mmHg 90%

    29 September, Friday

    Time Temperature Precipitation Wind Pressure Humidity
    00:00 +9°C° 0.1 mm 2 mps 663 mmHg 90%
    01:00 +9°C° 0.1 mm 2 mps 663 mmHg 90%
    02:00 +9°C° 0.1 mm 2 mps 663 mmHg 89%
    03:00 +9°C° 0.1 mm 2 mps 663 mmHg 89%
    04:00 +9°C° 0 mm 2 mps 663 mmHg 89%
    05:00 +10°C° 0 mm 1 mps 663 mmHg 90%
    06:00 +10°C° 0 mm 1 mps 663 mmHg 90%
    07:00 +10°C° 0 mm 1 mps 663 mmHg 85%
    08:00 +10°C° 0 mm 2 mps 664 mmHg 80%
    09:00 +12°C° 0 mm 2 mps 664 mmHg 75%
    10:00 +13°C° 0 mm 2 mps 664 mmHg 70%
    11:00 +13°C° 0 mm 3 mps 664 mmHg 65%
    12:00 +14°C° 0 mm 3 mps 664 mmHg 61%
    13:00 +14°C° 0 mm 3 mps 663 mmHg 61%
    14:00 +14°C° 0 mm 3 mps 663 mmHg 62%
    15:00 +14°C° 0 mm 3 mps 662 mmHg 62%
    16:00 +13°C° 0 mm 3 mps 662 mmHg 67%
    17:00 +13°C° 0 mm 2 mps 662 mmHg 72%
    18:00 +12°C° 0 mm 2 mps 662 mmHg 77%
    19:00 +12°C° 0 mm 2 mps 662 mmHg 78%
    20:00 +12°C° 0 mm 2 mps 662 mmHg 79%
    21:00 +12°C° 0 mm 1 mps 662 mmHg 80%
    22:00 +11°C° 0 mm 1 mps 661 mmHg 81%
    23:00 +11°C° 0 mm 1 mps 661 mmHg 82%
    Show more